Location: ??????
(41.3164°N, 22.6615°E)
Time: 03:05:42
(UTC+00:00)

CAS-4A - Pass Details

Date: 08 July 2022
Orbit: 521 x 537 km, 43.0° (Epoch: 10 August)

Event Time Altitude Azimuth Distance (km) Brightness Sun altitude
Exits shadow 00:35:10 23° 286° (WNW) 1,136 ? -20.3°
Maximum altitude 00:37:32 72° 6° (N) 551 ? -20.1°
Drops below altitude 10° 00:41:33 10° 92° (E) 1,757 ? -19.7°
Sets 00:43:48 0° 95° (E) 2,647 ? -19.5°
